{"data":{"norad_id":66608,"epoch":"2026-05-24T23:07:39.862848Z","epoch_age_seconds":81279,"freshness":"FRESH","line1":"1 66608U 25270W   26144.96365582  .00016613  00000+0  61153-3 0  9998","line2":"2 66608  43.0014 345.1897 0001755 272.6455  87.4195 15.27598568 29210","mean_motion":15.27598568,"eccentricity":0.0001755,"inclination_deg":43.0014,"raan_deg":345.1897,"arg_perigee_deg":272.6455,"mean_anomaly_deg":87.4195,"bstar":0.00061153,"rev_number":2921,"period_min":94.265602898889,"perigee_km":481.78936892874,"apogee_km":484.19762573331,"semimajor_km":6861.130497331,"source":"CELESTRAK","updated_at":"2026-05-25T13:38:21.291605Z"}}